This is the latest recevied weather packets stored in our database for station/object KE5QKR. If no packets are shown the sender has not sent any weather packets the latest 10 day(s).
| Time | Temp. | Humidity | Pressure | Rain* | Wind** | Luminosity | Snow |
|---|---|---|---|---|---|---|---|
| 1777749958 | 21.11° C | 46% | 1014.2 hPa | 0 mm | - | 772 W/m² | - |
| 1777749655 | 21.11° C | 50% | 1014.1 hPa | 0 mm | - | 785 W/m² | - |
| 1777749352 | 21.11° C | 50% | 1014.1 hPa | 0 mm | - | 790 W/m² | - |
| 1777749051 | 21.11° C | 51% | 1014 hPa | 0 mm | - | 798 W/m² | - |
| 1777748747 | 21.11° C | 54% | 1014.2 hPa | 0 mm | - | 805 W/m² | - |
| 1777748444 | 21.11° C | 53% | 1014.3 hPa | 0 mm | - | 813 W/m² | - |
| 1777747836 | 21.11° C | 56% | 1014 hPa | 0 mm | - | 815 W/m² | - |
| 1777747532 | 20.56° C | 55% | 1014.1 hPa | 0 mm | - | 832 W/m² | - |
| 1777746621 | 20.56° C | 55% | 1014.3 hPa | 0 mm | - | 847 W/m² | - |
| 1777746315 | 20.56° C | 58% | 1014.3 hPa | 0 mm | - | 851 W/m² | - |
| 1777746012 | 21.11° C | 59% | 1014.3 hPa | 0 mm | - | 869 W/m² | - |
| 1777745710 | 20.56° C | 62% | 1014.3 hPa | 0 mm | - | 925 W/m² | - |
| 1777745409 | 20.56° C | 61% | 1014.2 hPa | 0 mm | - | 864 W/m² | - |
| 1777744803 | 20.56° C | 63% | 1014.3 hPa | 0 mm | - | 876 W/m² | - |
| 1777744198 | 20.56° C | 63% | 1014.4 hPa | 0 mm | - | 883 W/m² | - |
| 1777742380 | 20.56° C | 68% | 1014.5 hPa | 0 mm | - | 639 W/m² | - |
| 1777741774 | 20° C | 68% | 1014.6 hPa | 0 mm | - | 263 W/m² | - |
| 1777741166 | 20° C | 69% | 1014.8 hPa | 0 mm | - | 929 W/m² | - |
| 1777740864 | 19.44° C | 71% | 1014.8 hPa | 0 mm | - | 762 W/m² | - |
| 1777739953 | 19.44° C | 70% | 1015 hPa | 0 mm | - | 620 W/m² | - |
| 1777739348 | 19.44° C | 73% | 1014.8 hPa | 0 mm | - | 834 W/m² | - |
| 1777739044 | 18.89° C | 72% | 1014.9 hPa | 0 mm | - | 813 W/m² | - |
| 1777738741 | 18.89° C | 72% | 1014.8 hPa | 0 mm | - | 887 W/m² | - |
| 1777738437 | 18.33° C | 74% | 1014.8 hPa | 0 mm | - | 804 W/m² | - |
| 1777738135 | 18.33° C | 75% | 1015 hPa | 0 mm | - | 793 W/m² | - |
* Rain latest hour (hover to see other rain measurements)
** Current wind speed in m/s (hover to see current wind gust speed)